[[{"header":{"parameterUnit":"m.s-1","parameterCategory":1,"la1":30.2991,"la2":30.254,"lo1":-89.0895,"lo2":-89.0444,"dy":0.0017,"dx":0.0017,"nx":28,"ny":28,"refTime":"2024-08-12T09:00:00:Z","depth":0,"parameterNumber":2,"parameterNumberName":"U-component_of_WINDS"},"data":[0,0,0,0,0,0,0,0,0,0,0,0,0,0,0,0,0,0,0,0,0,0,0,0,0,0,0,0,0,0,0,0,0,0,0,0,0,0,0,0,0,0,0,0,0,0,0,0,0,0,0,0,0,0,0,0,0,0,2.9378,2.938,0,2.9504,2.9505,2.9506,2.9452,2.9449,2.9446,2.9443,2.9571,2.9577,2.9583,0,0,0,0,0,0,0,0,0,0,0,0,0,2.9092,2.9097,2.9378,2.938,2.9381,2.9503,2.9505,2.9507,2.9453,2.9449,2.9445,2.9442,2.9569,2.9576,2.9583,0,0,0,0,0,0,0,0,0,0,0,0,0,2.9217,2.9099,2.9378,2.9369,2.937,2.9503,2.9505,2.9507,2.9453,2.9449,2.9444,2.944,2.9566,2.9575,2.9584,2.9734,0,0,2.9613,2.9617,0,0,0,0,0,0,0,0,2.921,2.9227,2.9369,2.937,2.9371,2.9457,2.9451,2.9583,2.9455,2.9422,2.9443,2.9438,2.9537,2.9548,2.9582,2.974,2.9745,2.9614,2.962,2.9624,2.9626,0,0,0,0,0,0,0,2.9201,2.9221,2.9428,2.9371,2.9372,2.9359,2.9371,2.9476,2.9503,2.9424,2.942,2.9436,2.9536,2.9573,2.9584,2.9747,2.9614,2.9622,2.9628,2.9631,3.0033,3.0038,0,0,0,0,0,0,2.9192,2.9215,2.9424,2.9431,2.9277,2.9368,2.9382,2.9434,2.9502,2.9508,2.944,2.9433,2.9559,2.9573,2.9589,2.9767,2.9624,2.9632,2.9638,3.0028,3.0034,3.004,0,0,0,0,0,0,2.9187,2.9212,2.9419,2.9322,2.9348,2.9377,2.9437,2.9439,2.9475,2.9514,2.9518,2.9472,2.9556,2.9575,2.9698,2.977,2.9637,2.9645,3.0022,3.003,3.0037,3.0125,0,0,0,0,0,0,2.9179,2.921,2.9267,2.9324,2.9353,2.9526,2.9441,2.9445,2.9492,2.9484,2.9545,2.9551,2.9554,2.9684,2.9707,2.9781,2.9652,3.0016,3.0026,3.0035,3.0116,3.0135,3.0151,0,0,0,0,0,2.9168,2.9287,2.927,2.9296,2.9425,2.9531,2.9547,2.9548,2.9498,2.9555,2.958,2.9549,2.9759,2.9697,2.9723,2.98,3.0011,3.0023,3.0034,3.0108,3.0131,3.0151,0,0,0,0,0,0,2.9237,2.9294,2.9276,2.9416,2.9469,2.9521,2.9594,2.9573,2.9641,2.9631,2.9629,2.9644,2.977,2.9798,2.9728,2.9948,2.9877,2.9895,2.9925,2.9947,2.9965,2.9955,2.966,0,0,0,0,0,2.9269,2.935,2.9395,2.9515,2.9542,2.9564,2.961,2.9606,2.9661,2.9683,2.9716,2.977,2.9848,2.99,2.9974,3.012,3.0132,3.0186,3.0204,3.0218,3.0232,3.0311,3.0335,3.0077,3.0077,3.0077,0,0,2.9335,2.9376,2.9427,2.953,2.957,2.9654,2.9583,2.9675,2.9737,2.9697,2.9814,2.9841,2.9901,3.0036,3.0097,3.0063,3.0306,3.0233,3.0244,3.025,3.0325,3.0349,3.0371,3.0085,3.0083,3.0082,0,0,2.9497,2.9537,2.964,2.9682,2.9745,2.9758,2.9783,2.9839,2.9855,2.9973,2.9945,3.0019,3.0153,3.0197,3.0237,3.0417,3.039,3.0441,3.0532,3.0609,3.0629,3.0647,3.071,3.0733,3.0456,3.0456,3.0456,0,2.9571,2.9696,2.9696,2.979,2.9836,2.9804,2.9908,2.9949,3.0033,3.0065,3.0025,3.0194,3.0232,3.0376,3.042,3.0454,3.0482,3.0433,3.0627,3.0645,3.0661,3.0721,3.0745,3.0461,3.0461,3.046,3.046,0,2.9783,2.9871,2.9947,3.0028,3.0083,3.0182,3.0196,3.0251,3.0243,3.0261,3.0382,3.0427,3.0509,3.0543,3.0536,3.0687,3.0663,3.0626,3.0554,3.0691,3.0748,3.0771,3.047,3.0468,3.0466,3.0464,0,0,2.9991,3.0071,3.0099,3.0135,3.0202,3.027,3.0367,3.0448,3.0495,3.0554,3.0635,3.075,3.0715,3.0761,3.0759,3.0826,3.0965,3.078,3.0782,3.0812,3.1132,3.1158,3.1185,3.0948,3.0953,3.0956,3.1126,0,3.0157,3.0328,3.0331,3.0488,3.0568,3.0539,3.0624,3.0674,3.0694,3.0765,3.0786,3.0867,3.0816,3.0843,3.0909,3.0934,3.1028,3.0922,3.1022,3.1026,3.1006,3.1214,3.1243,3.1401,3.1148,3.1152,3.1155,0,3.0374,3.0439,3.0604,3.0659,3.0693,3.0769,3.0843,3.0912,3.0968,3.0977,3.1028,3.1016,3.1115,3.1042,3.1178,3.1105,3.1147,3.1166,3.1172,3.118,3.1097,3.1226,3.1451,3.1474,3.1189,3.1187,3.1184,0,3.0507,3.0637,3.0752,3.0784,3.0851,3.0905,3.0936,3.0988,3.1036,3.1101,3.1132,3.1208,3.1249,3.1307,3.1316,3.1262,3.1452,3.138,3.1462,3.1462,3.1501,3.1498,3.1735,3.1532,3.1531,3.1531,3.153,0,3.0691,3.0793,3.0813,3.0883,3.0996,3.0999,3.111,3.1136,3.1183,3.1258,3.1238,3.1309,3.1316,3.1389,3.1397,3.1508,3.1527,3.1536,3.1537,3.1537,3.1536,3.1563,3.1551,3.1537,3.1536,3.1534,3.1533,0,3.0858,3.0876,3.0999,3.1053,3.1069,3.1149,3.1195,3.1263,3.128,3.1375,3.1398,3.1426,3.151,3.1525,3.1625,3.163,3.1762,3.1752,3.1743,3.1741,3.1821,3.1813,3.2081,3.2116,3.1892,3.1894,3.1896,0,3.0974,3.1051,3.1113,3.1162,3.1195,3.1274,3.1323,3.133,3.1381,3.1451,3.151,3.1593,3.1659,3.1796,3.1825,3.1901,3.1892,3.1981,3.1903,3.1901,3.1891,3.1885,3.1892,3.1995,3.1997,3.1999,3.2001,0,3.1176,3.1181,3.1253,3.1328,3.1387,3.1447,3.1503,3.1544,3.1557,3.1617,3.1703,3.1755,3.1857,3.1939,3.2015,3.2045,3.2026,3.2026,3.2048,3.2048,3.2039,3.2043,3.1782,3.2019,3.2017,3.2016,3.2015,3.2014,3.132,3.1387,3.1441,3.1522,3.1565,3.1618,3.1683,3.1709,3.1782,3.1865,3.1865,3.1959,3.2013,3.2113,3.2149,3.2223,3.2194,3.2227,3.2235,3.2243,3.2249,3.2029,3.2237,3.2236,3.2236,3.2235,3.2235,0,3.152,3.1554,3.1628,3.1707,3.177,3.1747,3.1808,3.1862,3.1945,3.1998,3.2063,3.2162,3.2242,3.2278,3.2356,3.2408,3.2401,3.2428,3.2423,3.243,3.2271,3.2243,3.2433,3.2432,3.2432,3.2432,3.2432,3.2432,3.1631,3.1743,3.1755,3.1888,3.1921,3.2013,3.205,3.2098,3.214,3.2251,3.2317,3.234,3.2386,3.2467,3.2539,3.2547,3.2576,3.2607,3.2611,3.2462,3.2442,3.2423,3.2396,3.2614,3.2614,3.2764,3.2765,3.2766]},{"header":{"parameterUnit":"m.s-1","parameterCategory":1,"la1":30.2991,"la2":30.254,"lo1":-89.0895,"lo2":-89.0444,"dy":0.0017,"dx":0.0017,"nx":28,"ny":28,"refTime":"2024-08-12T09:00:00:Z","depth":0,"parameterNumber":3,"parameterNumberName":"V-component_of_WINDS"},"data":[0,0,0,0,0,0,0,0,0,0,0,0,0,0,0,0,0,0,0,0,0,0,0,0,0,0,0,0,0,0,0,0,0,0,0,0,0,0,0,0,0,0,0,0,0,0,0,0,0,0,0,0,0,0,0,0,0,0,-1.0478,-1.0477,0,-1.0347,-1.0345,-1.0344,-1.031,-1.0311,-1.0312,-1.0313,-1.017,-1.0166,-1.0162,0,0,0,0,0,0,0,0,0,0,0,0,0,-1.0693,-1.0689,-1.0478,-1.0477,-1.0475,-1.0347,-1.0345,-1.0343,-1.031,-1.0311,-1.0312,-1.0313,-1.0172,-1.0167,-1.0161,0,0,0,0,0,0,0,0,0,0,0,0,0,-1.0584,-1.0688,-1.0479,-1.0443,-1.0439,-1.0347,-1.0345,-1.0343,-1.031,-1.0311,-1.0312,-1.0314,-1.0174,-1.0167,-1.016,-1.0093,0,0,-1.0139,-1.0136,0,0,0,0,0,0,0,0,-1.0591,-1.0576,-1.045,-1.0445,-1.044,-1.0346,-1.0369,-1.0259,-1.0309,-1.0358,-1.0313,-1.0314,-1.0227,-1.0216,-1.0189,-1.0086,-1.008,-1.0139,-1.0135,-1.0132,-1.013,0,0,0,0,0,0,0,-1.0598,-1.0582,-1.0426,-1.0448,-1.0442,-1.0431,-1.0417,-1.0348,-1.0287,-1.0354,-1.0352,-1.0337,-1.0225,-1.0195,-1.0185,-1.0078,-1.0139,-1.0133,-1.0129,-1.0126,-0.9911,-0.991,0,0,0,0,0,0,-1.0613,-1.0588,-1.043,-1.0422,-1.052,-1.0426,-1.0411,-1.0375,-1.0288,-1.0276,-1.0336,-1.0336,-1.0206,-1.0193,-1.018,-1.0093,-1.0132,-1.0125,-1.0121,-0.9913,-0.9911,-0.9909,0,0,0,0,0,0,-1.0618,-1.0599,-1.0435,-1.0504,-1.0483,-1.0421,-1.0382,-1.0372,-1.0342,-1.0274,-1.0262,-1.0317,-1.0207,-1.0189,-1.0115,-1.0088,-1.0122,-1.0116,-0.9915,-0.9912,-0.991,-0.9921,0,0,0,0,0,0,-1.0624,-1.0601,-1.0576,-1.0504,-1.0479,-1.0375,-1.038,-1.0368,-1.0331,-1.033,-1.0253,-1.0242,-1.0206,-1.0125,-1.0108,-1.0079,-1.0111,-0.9917,-0.9914,-0.9911,-0.9923,-0.9919,-0.9916,0,0,0,0,0,-1.0632,-1.0583,-1.0575,-1.0556,-1.0448,-1.0373,-1.0359,-1.0321,-1.0329,-1.0302,-1.0259,-1.0244,-1.0095,-1.0118,-1.0098,-1.0067,-0.9918,-0.9914,-0.9911,-0.9924,-0.992,-0.9916,0,0,0,0,0,0,-1.0651,-1.0573,-1.0563,-1.0491,-1.0439,-1.0368,-1.0333,-1.0318,-1.0261,-1.0262,-1.0215,-1.0198,-1.0126,-1.0089,-1.0117,-0.9996,-1.0006,-0.9998,-1.0023,-1.0018,-1.0015,-1.0024,-1.0105,0,0,0,0,0,-1.0647,-1.0596,-1.053,-1.0472,-1.0447,-1.0395,-1.0361,-1.0337,-1.028,-1.0257,-1.0208,-1.0152,-1.0092,-1.0053,-0.9995,-0.9918,-0.99,-0.9887,-0.9884,-0.9881,-0.9874,-0.983,-0.9823,-0.9897,-0.9897,-0.9898,0,0,-1.0638,-1.0589,-1.0559,-1.0474,-1.0432,-1.0377,-1.0376,-1.0318,-1.0276,-1.0248,-1.0174,-1.0137,-1.0071,-0.9995,-0.9958,-0.9961,-0.985,-0.9877,-0.9876,-0.987,-0.9825,-0.9818,-0.9812,-0.9895,-0.9895,-0.9896,0,0,-1.0592,-1.0552,-1.0498,-1.0456,-1.0392,-1.0358,-1.0346,-1.0276,-1.0251,-1.0177,-1.0154,-1.0103,-1.0001,-0.9955,-0.9918,-0.9856,-0.984,-0.9838,-0.9821,-0.9778,-0.9772,-0.9766,-0.9742,-0.9734,-0.9832,-0.9832,-0.9832,0,-1.0588,-1.0507,-1.0472,-1.0416,-1.0378,-1.0353,-1.0297,-1.0257,-1.0176,-1.0149,-1.0155,-1.0027,-0.9981,-0.9893,-0.9878,-0.985,-0.9831,-0.9846,-0.9776,-0.977,-0.9764,-0.9741,-0.9732,-0.9832,-0.9832,-0.9832,-0.9832,0,-1.0504,-1.0448,-1.0412,-1.0338,-1.0296,-1.024,-1.0195,-1.0157,-1.0136,-1.0101,-1.0025,-0.997,-0.9899,-0.9876,-0.9855,-0.9785,-0.9789,-0.9786,-0.9794,-0.9758,-0.9735,-0.9726,-0.9833,-0.9832,-0.9832,-0.9832,0,0,-1.0464,-1.0373,-1.036,-1.0325,-1.0254,-1.0208,-1.0151,-1.0084,-1.0051,-0.9997,-0.9946,-0.9861,-0.9858,-0.9816,-0.979,-0.9752,-0.9705,-0.9753,-0.9751,-0.9744,-0.9621,-0.9622,-0.9613,-0.9695,-0.9693,-0.9691,-0.9626,0,-1.0409,-1.0307,-1.0274,-1.0189,-1.0135,-1.0111,-1.006,-1.001,-0.9975,-0.9923,-0.9884,-0.9824,-0.9826,-0.9801,-0.9763,-0.9719,-0.9679,-0.9723,-0.9643,-0.9641,-0.9659,-0.9601,-0.9602,-0.9543,-0.9617,-0.9616,-0.9615,0,-1.0329,-1.0276,-1.0186,-1.0121,-1.0097,-1.0053,-0.9989,-0.994,-0.9882,-0.9859,-0.9813,-0.979,-0.9726,-0.9741,-0.9651,-0.9682,-0.9648,-0.9621,-0.9618,-0.9607,-0.9624,-0.9586,-0.9524,-0.9514,-0.9601,-0.9602,-0.9603,0,-1.0307,-1.0213,-1.0147,-1.0118,-1.0041,-1.001,-0.9976,-0.9919,-0.9881,-0.9824,-0.9799,-0.9735,-0.9699,-0.9649,-0.9608,-0.9623,-0.9521,-0.9533,-0.9498,-0.9499,-0.9476,-0.9477,-0.9405,-0.9458,-0.9458,-0.9458,-0.9458,0,-1.0247,-1.0192,-1.0136,-1.0095,-1.0032,-0.9994,-0.9933,-0.9897,-0.9846,-0.9796,-0.9771,-0.9724,-0.9674,-0.9619,-0.9587,-0.9517,-0.9501,-0.9479,-0.9471,-0.948,-0.9482,-0.9455,-0.9457,-0.9456,-0.9456,-0.9457,-0.9457,0,-1.0211,-1.0171,-1.0097,-1.0031,-1.0013,-0.997,-0.9912,-0.987,-0.9836,-0.9772,-0.9755,-0.9699,-0.9634,-0.959,-0.9505,-0.9483,-0.9406,-0.94,-0.9427,-0.9422,-0.939,-0.9392,-0.9294,-0.9279,-0.9345,-0.9345,-0.9344,0,-1.0174,-1.0131,-1.0062,-1.0028,-0.9994,-0.9939,-0.9901,-0.9862,-0.9822,-0.9753,-0.9718,-0.9652,-0.9597,-0.9494,-0.9444,-0.9379,-0.9369,-0.934,-0.9359,-0.937,-0.9366,-0.9368,-0.9363,-0.9336,-0.9335,-0.9335,-0.9334,0,-1.0111,-1.0094,-1.0041,-0.9981,-0.9937,-0.9887,-0.9837,-0.981,-0.9761,-0.9718,-0.9652,-0.961,-0.9525,-0.9458,-0.9389,-0.9351,-0.9333,-0.9329,-0.9317,-0.9325,-0.9342,-0.933,-0.9416,-0.9331,-0.9331,-0.9331,-0.9332,-0.9332,-1.0072,-1.0033,-0.9978,-0.9919,-0.9878,-0.9832,-0.9789,-0.975,-0.9696,-0.9625,-0.9605,-0.9536,-0.9478,-0.9383,-0.9345,-0.9289,-0.9291,-0.9274,-0.9269,-0.9265,-0.9264,-0.9353,-0.9276,-0.9276,-0.9276,-0.9276,-0.9276,0,-1.0006,-0.997,-0.9917,-0.9849,-0.9802,-0.9794,-0.9738,-0.9698,-0.9639,-0.9587,-0.9534,-0.9458,-0.9394,-0.9341,-0.9274,-0.9239,-0.9229,-0.9222,-0.9223,-0.9214,-0.9267,-0.9283,-0.9231,-0.9231,-0.9232,-0.9232,-0.9232,-0.9232,-0.9966,-0.99,-0.9876,-0.9788,-0.9751,-0.9686,-0.9654,-0.961,-0.9569,-0.9486,-0.9434,-0.9401,-0.9347,-0.9276,-0.9216,-0.9202,-0.9177,-0.9172,-0.9156,-0.9206,-0.9211,-0.9215,-0.923,-0.9168,-0.9168,-0.9107,-0.9107,-0.9106]}]]